Wind_Speed
23 23 22 22 23 22 20 20 18 16 14 14 13 11 11 10 8 7 7 6 5 5 4 5 5 4 4 3 3 3 3 3 4 4 4 5 5 5 4 4 5 5 5 4 4 4 4 5 5
23 23 23 24 24 23 23 22 19 17 16 15 13 12 11 10 8 7 7 7 6 5 4 3 4 3 3 3 3 3 3 3 3 4 4 5 5 5 5 5 5 5 5 4 4 4 4 5 5
21 22 23 25 25 24 24 23 20 18 17 15 13 12 11 10 9 8 8 8 7 6 5 4 4 3 3 4 4 3 2 2 3 4 4 5 5 4 4 5 5 5 5 4 4 3 3 4 4
19 21 23 25 25 25 25 24 22 19 17 16 14 12 11 10 10 9 9 9 8 7 6 5 4 3 3 3 3 3 3 2 2 4 4 5 5 4 4 5 5 5 5 4 4 3 3 3 3
18 20 22 23 24 25 24 24 24 22 19 17 16 14 12 12 11 10 10 10 9 7 6 5 4 4 4 4 4 3 3 2 2 3 4 3 3 4 4 5 5 5 5 4 4 3 3 3 3
19 21 21 22 22 23 22 23 23 21 20 19 17 16 14 13 12 11 10 10 9 8 6 5 4 3 3 3 3 3 2 2 2 3 3 3 3 4 5 5 5 5 4 4 4 3 3 3 3
20 21 20 21 21 21 22 22 22 21 20 19 19 18 16 15 13 12 12 11 9 8 7 6 5 3 3 2 3 3 2 2 2 3 3 3 3 3 4 4 5 4 4 4 4 4 3 3 3
20 19 19 19 19 20 21 21 21 22 21 21 20 19 17 16 15 13 13 13 11 9 8 6 6 4 3 2 2 2 2 2 2 3 3 3 3 3 3 4 4 4 4 4 4 4 4 3 3
19 16 16 18 18 18 20 20 21 22 22 22 21 20 18 16 16 14 14 13 12 11 9 8 7 6 4 3 2 2 2 3 3 3 3 3 3 3 3 3 4 4 4 4 4 4 4 3 4
16 15 14 15 17 18 19 20 21 22 22 22 21 20 18 17 17 16 15 15 13 12 10 9 8 6 5 4 2 2 3 3 4 3 3 3 3 3 2 3 3 3 4 4 4 5 4 3 4
13 12 13 15 17 18 19 20 21 22 21 22 21 20 19 18 17 17 16 15 14 13 11 10 8 7 6 5 3 2 3 4 4 4 3 2 3 3 3 3 4 3 3 4 4 4 5 4 4
10 10 11 14 17 18 18 19 21 21 21 21 21 21 20 18 18 17 16 16 15 14 12 12 10 8 7 5 4 2 3 3 4 4 3 3 2 3 3 4 4 4 3 4 4 4 4 4 5
9 8 9 12 15 16 17 17 18 20 21 22 21 20 19 19 18 18 17 16 16 15 13 12 12 11 8 7 5 3 2 2 3 3 3 3 3 3 3 3 4 4 4 4 5 5 5 5 5
6 7 9 11 12 14 15 16 17 18 20 21 20 20 19 19 18 18 18 18 17 17 16 14 13 12 10 8 6 4 3 2 3 3 3 3 3 3 3 4 4 4 4 5 6 5 6 6 7
5 4 6 9 11 12 14 15 17 17 19 19 19 20 19 19 18 18 18 18 18 18 17 16 15 14 12 10 8 6 4 3 1 2 3 3 4 4 3 4 4 4 4 5 6 6 6 7 8
5 4 4 6 8 10 12 14 15 16 17 18 18 19 18 18 18 19 19 18 18 18 17 17 16 15 14 12 10 9 7 4 3 0 2 2 3 4 4 4 5 5 5 5 5 6 7 8 8
5 4 3 3 5 8 10 13 14 14 14 16 17 18 18 17 18 18 18 18 17 17 17 16 16 16 15 13 11 10 9 6 4 2 0 1 3 4 4 5 5 6 6 6 6 6 7 8 8
6 4 1 1 3 5 8 10 13 13 13 14 16 17 17 17 17 17 17 17 17 17 16 16 16 16 15 14 12 11 10 7 5 4 3 1 1 2 4 5 6 6 6 6 6 6 7 8 9
7 4 3 1 2 5 7 8 11 11 12 14 15 15 15 15 15 16 16 16 16 16 16 16 16 16 15 14 12 12 11 9 6 5 5 3 1 1 2 4 5 6 6 6 7 7 8 9 10
9 8 6 4 4 6 6 7 8 10 12 13 14 13 14 13 13 14 14 15 15 15 15 15 15 15 14 14 13 12 11 10 8 7 5 4 2 1 2 3 4 5 6 6 8 8 8 9 10
12 11 9 8 8 8 8 7 8 9 10 11 13 12 12 12 11 12 13 14 14 14 14 14 15 16 15 14 14 12 11 10 8 8 6 5 3 2 1 2 3 5 6 7 8 9 10 10 10
15 13 12 12 12 11 9 9 9 11 10 11 11 11 11 11 10 10 11 12 13 13 14 14 14 15 15 14 14 13 11 9 8 7 7 6 4 3 2 3 3 4 5 7 8 9 10 11 11
16 16 16 15 15 14 13 13 11 11 11 10 10 10 10 11 9 9 10 11 12 12 13 13 14 14 14 14 14 13 11 10 9 8 7 7 6 4 4 4 4 5 6 7 8 9 10 11 12
18 18 18 18 17 16 13 14 12 11 10 10 10 10 9 10 8 8 9 10 11 11 12 12 13 14 14 14 14 13 12 11 10 9 8 7 6 5 5 5 5 6 6 7 8 9 10 11 11
20 20 20 20 18 15 14 15 13 11 10 10 11 10 9 8 8 9 9 9 10 10 11 11 12 13 13 13 13 13 13 11 10 9 9 8 7 7 6 6 7 7 8 8 8 9 10 11 12
21 22 22 20 18 16 15 15 13 11 11 11 12 12 10 9 9 9 9 8 9 9 10 10 11 12 13 13 13 13 13 11 10 9 9 9 9 9 8 8 8 8 8 9 9 9 10 10 11
22 22 22 21 20 19 17 16 13 11 11 12 12 13 12 11 10 10 9 8 8 9 9 10 10 11 12 12 12 12 13 12 10 10 10 10 10 10 10 10 10 10 10 10 10 9 10 10 11
24 22 23 23 22 21 19 16 14 13 12 12 12 14 14 14 12 10 9 9 8 8 8 9 9 10 11 11 12 12 12 12 11 10 10 10 10 10 11 11 12 12 12 11 11 11 11 11 12
25 24 25 25 25 24 22 18 14 14 13 13 13 15 16 14 11 10 11 10 8 8 8 9 10 10 10 11 12 12 12 12 12 12 11 11 11 12 12 12 13 13 13 12 12 12 13 14 14
28 27 27 27 26 26 25 22 17 16 14 14 15 15 16 16 14 13 13 12 11 9 9 9 9 10 10 11 12 12 12 12 12 13 13 13 14 14 14 14 14 14 14 14 13 13 14 15 16
Wind_Direction
60 56 55 51 47 46 44 45 46 45 42 40 39 37 39 42 44 47 41 51 70 86 100 112 110 110 107 130 150 151 160 180 189 189 187 186 184 178 175 167 163 159 151 147 141 137 130 128 126
59 53 51 49 46 44 43 42 43 43 41 41 41 38 36 40 42 41 45 50 63 77 95 113 112 105 115 137 146 147 155 175 190 193 194 192 188 186 186 184 179 172 164 157 148 145 139 135 132
61 53 48 47 46 42 42 42 41 42 39 40 41 41 39 44 46 46 50 50 59 70 76 94 97 109 133 153 154 158 164 186 200 201 202 202 200 199 196 188 178 174 171 167 159 155 149 144 142
60 52 48 47 43 41 41 42 40 38 35 39 42 43 44 48 49 47 49 49 62 70 71 87 93 106 122 139 149 164 164 170 187 202 205 206 206 203 201 191 186 182 179 177 171 167 162 156 156
58 49 44 44 42 40 38 39 39 38 35 38 41 45 48 47 48 47 47 51 60 69 67 77 90 106 119 124 124 134 147 148 162 188 198 203 211 215 205 198 194 189 191 193 186 182 175 166 159
58 48 42 41 41 39 37 37 36 36 36 37 41 46 47 48 50 49 51 52 55 60 62 67 75 99 116 135 148 141 140 153 171 183 190 195 203 208 206 202 200 200 207 204 193 184 180 166 161
54 49 45 42 38 37 37 38 38 37 36 38 42 45 45 49 51 51 50 50 49 55 57 59 67 89 109 129 157 171 166 163 171 183 195 204 203 207 207 203 203 207 213 205 195 194 179 171 167
53 49 46 43 37 36 37 37 37 38 37 38 41 44 45 48 51 51 50 48 48 51 53 56 61 75 89 110 143 168 178 178 185 190 195 203 199 197 199 205 206 206 209 205 195 188 182 174 167
55 51 47 44 37 37 37 38 38 38 37 38 40 43 46 47 49 49 49 50 49 51 54 58 58 65 75 87 111 146 171 171 175 182 195 199 190 191 200 206 204 202 204 204 194 181 173 167 163
56 53 48 44 38 37 37 39 41 39 38 38 39 41 44 45 46 49 50 48 46 48 52 55 56 61 64 67 85 140 161 168 170 171 183 196 198 200 206 208 200 196 202 197 188 181 176 170 164
63 57 50 45 40 36 38 39 42 40 36 38 40 41 44 44 43 46 50 48 46 49 51 50 48 52 55 58 69 119 150 161 170 173 179 189 200 210 211 207 202 195 206 198 187 183 180 172 166
75 69 56 45 36 34 33 36 40 40 37 37 39 40 42 44 43 42 45 47 47 50 52 50 47 47 51 57 61 81 144 167 178 180 185 181 190 206 207 201 199 197 202 201 194 185 182 182 179
85 78 64 50 35 31 30 31 35 38 38 37 37 38 39 41 42 43 44 45 45 48 53 55 52 49 52 55 60 74 129 181 182 188 193 197 203 202 204 207 210 210 207 207 201 196 193 191 187
95 80 68 55 41 29 26 27 29 32 35 34 36 37 38 39 41 42 43 44 44 45 47 50 51 50 52 53 57 65 78 141 185 195 203 210 223 228 217 214 218 216 211 213 212 209 204 203 200
111 88 66 52 40 26 20 22 26 27 30 31 33 35 37 39 40 42 43 44 45 45 44 45 46 47 48 51 55 55 60 70 104 192 203 213 221 226 221 214 224 220 218 218 218 220 214 215 211
129 107 70 50 38 23 13 15 23 22 27 28 30 32 35 38 38 40 41 42 42 43 42 44 44 44 44 47 50 52 47 45 48 96 200 218 222 223 226 223 226 224 223 223 230 235 225 221 221
133 102 82 33 31 15 5 4 9 14 21 26 27 29 31 33 35 37 38 39 40 40 40 40 41 42 42 42 45 46 43 39 45 46 12 239 232 228 229 233 230 232 231 232 234 245 237 230 231
153 139 117 357 0 349 347 350 359 6 13 20 23 26 27 29 31 34 36 37 37 38 39 38 38 39 39 38 40 41 41 43 49 39 21 329 259 235 232 242 240 238 238 244 246 248 243 239 242
173 181 207 226 301 312 324 340 350 360 7 9 13 21 25 26 29 31 32 34 35 36 37 37 36 36 37 37 37 38 40 43 50 44 35 24 341 255 248 250 247 243 243 247 253 254 250 249 247
198 203 215 218 261 280 299 316 332 347 356 358 3 12 20 21 24 26 29 32 33 34 35 35 34 34 34 34 34 35 37 40 45 46 36 27 12 312 262 257 253 250 253 256 257 256 255 254 254
209 208 220 230 239 251 267 288 304 324 341 348 354 2 11 16 17 22 28 31 30 30 32 32 32 32 33 30 31 31 31 33 33 29 25 24 18 0 321 281 269 264 262 262 263 259 256 259 256
210 213 224 229 236 243 259 267 284 305 321 336 343 350 356 8 11 15 25 29 28 27 28 29 30 30 32 30 29 28 28 27 26 24 24 24 21 11 355 325 306 290 275 268 265 260 258 259 258
214 214 224 227 232 240 251 259 269 289 305 324 329 337 346 359 1 5 17 24 26 25 25 26 26 26 28 28 27 26 26 24 22 20 21 21 21 22 14 352 328 312 298 283 274 267 263 263 263
219 222 228 231 236 241 244 251 264 282 297 310 313 320 330 341 349 356 3 11 19 21 21 22 22 23 24 26 25 26 24 23 21 17 14 9 8 6 2 357 342 329 315 302 289 280 272 269 270
224 227 230 231 236 237 238 247 258 275 281 298 306 311 321 330 333 342 350 356 2 8 11 15 18 21 21 22 22 22 21 21 21 19 16 11 4 357 351 351 341 330 321 312 301 290 282 276 273
225 229 232 234 233 231 238 247 258 266 276 285 293 302 313 318 321 331 335 340 347 351 357 5 12 16 17 19 20 20 20 21 21 18 15 11 6 1 351 343 338 331 325 315 308 297 289 281 275
225 227 232 236 234 236 237 245 253 259 272 277 287 297 303 303 307 319 326 331 335 339 345 352 1 7 10 12 13 14 16 15 12 12 10 7 2 355 350 344 338 332 325 319 311 305 297 289 282
225 225 230 234 237 239 238 242 253 257 262 271 282 291 295 299 298 310 315 321 324 328 336 339 352 357 0 2 4 6 8 7 4 359 358 358 356 352 346 342 336 334 325 317 311 306 306 298 289
224 227 230 235 237 239 240 241 246 251 255 267 279 287 291 292 291 304 307 304 314 321 326 335 340 344 348 352 354 356 357 356 355 355 350 347 344 341 340 337 334 332 327 320 314 310 305 303 301
225 229 230 232 233 236 240 240 242 250 256 265 272 278 283 282 286 295 299 299 298 305 315 321 325 330 335 340 342 343 346 346 344 343 342 340 339 337 335 333 331 329 327 322 316 312 308 305 303
Height
5919 5917 5917 5916 5915 5913 5911 5911 5910 5908 5907 5905 5903 5903 5902 5902 5902 5902 5900 5897 5896 5896 5896 5896 5896 5896 5897 5897 5898 5898 5899 5899 5900 5900 5900 5901 5901 5901 5902 5902 5902 5903 5903 5903 5903 5903 5903 5903 5903
5922 5921 5920 5918 5916 5915 5914 5913 5912 5910 5908 5906 5905 5904 5903 5902 5901 5900 5898 5898 5897 5896 5896 5897 5897 5897 5897 5898 5898 5899 5899 5900 5900 5901 5901 5901 5901 5902 5902 5903 5903 5903 5903 5903 5904 5904 5904 5903 5903
5925 5924 5923 5920 5918 5917 5916 5915 5913 5911 5910 5908 5907 5906 5904 5903 5902 5900 5899 5898 5898 5897 5897 5897 5897 5897 5898 5898 5899 5899 5900 5900 5900 5901 5901 5902 5902 5902 5902 5903 5903 5904 5904 5904 5904 5904 5904 5904 5904
5928 5928 5925 5922 5921 5920 5918 5917 5915 5913 5911 5910 5909 5908 5906 5904 5902 5901 5900 5899 5898 5898 5898 5898 5898 5898 5898 5899 5899 5900 5900 5900 5901 5901 5902 5902 5902 5902 5903 5903 5904 5904 5904 5904 5904 5904 5904 5904 5904
5931 5929 5927 5925 5923 5921 5920 5919 5917 5916 5913 5911 5910 5909 5907 5905 5903 5902 5901 5900 5899 5899 5899 5899 5898 5899 5899 5899 5900 5900 5900 5900 5901 5901 5901 5902 5902 5903 5903 5903 5904 5904 5904 5904 5904 5904 5904 5904 5904
5934 5931 5930 5927 5925 5924 5923 5921 5920 5918 5916 5913 5911 5910 5908 5907 5904 5903 5902 5901 5900 5900 5900 5900 5899 5899 5899 5900 5900 5900 5900 5901 5901 5901 5902 5902 5902 5902 5903 5903 5903 5904 5904 5904 5904 5904 5904 5904 5904
5935 5934 5932 5931 5929 5927 5926 5925 5923 5921 5918 5915 5913 5911 5910 5908 5906 5904 5903 5902 5901 5901 5901 5900 5900 5900 5900 5899 5899 5900 5900 5901 5901 5901 5902 5902 5902 5902 5903 5903 5903 5904 5904 5904 5904 5904 5904 5904 5904
5936 5937 5935 5933 5932 5930 5929 5927 5926 5923 5921 5918 5915 5913 5912 5910 5908 5906 5905 5904 5903 5902 5901 5901 5900 5900 5900 5899 5900 5900 5900 5900 5901 5901 5901 5902 5902 5902 5903 5903 5903 5903 5903 5903 5904 5904 5904 5904 5904
5939 5940 5938 5937 5935 5934 5932 5930 5928 5925 5923 5920 5917 5916 5914 5912 5910 5908 5906 5905 5904 5903 5902 5901 5901 5900 5900 5900 5900 5900 5900 5900 5900 5901 5901 5902 5902 5902 5903 5903 5903 5903 5903 5903 5903 5904 5904 5905 5905
5942 5942 5940 5940 5939 5936 5935 5933 5930 5928 5925 5922 5920 5917 5916 5913 5912 5910 5909 5907 5905 5904 5903 5902 5901 5900 5900 5899 5899 5899 5899 5900 5900 5901 5901 5901 5902 5902 5902 5903 5903 5903 5903 5903 5903 5904 5904 5905 5905
5943 5944 5943 5942 5940 5938 5937 5935 5933 5930 5928 5925 5923 5920 5918 5916 5914 5912 5911 5909 5907 5905 5904 5903 5901 5900 5900 5899 5899 5899 5899 5899 5900 5900 5901 5901 5901 5902 5902 5902 5903 5903 5903 5903 5904 5904 5904 5905 5905
5945 5945 5944 5943 5942 5940 5939 5937 5935 5934 5932 5929 5926 5923 5921 5919 5916 5914 5912 5910 5909 5907 5905 5904 5902 5901 5900 5899 5899 5899 5899 5899 5900 5900 5900 5901 5901 5901 5902 5902 5902 5902 5903 5903 5903 5904 5904 5905 5905
5946 5946 5946 5945 5944 5942 5941 5940 5938 5936 5934 5931 5928 5926 5923 5921 5919 5916 5914 5912 5910 5909 5907 5906 5904 5902 5901 5900 5899 5899 5899 5899 5899 5900 5900 5900 5901 5901 5901 5902 5902 5902 5902 5903 5903 5903 5904 5904 5905
5947 5947 5946 5946 5945 5945 5944 5942 5941 5939 5936 5934 5931 5929 5926 5923 5921 5918 5916 5914 5911 5909 5908 5906 5905 5903 5902 5901 5900 5899 5899 5899 5899 5899 5900 5900 5900 5901 5901 5901 5902 5902 5902 5902 5903 5903 5903 5904 5904
5948 5948 5948 5947 5947 5946 5946 5945 5943 5941 5939 5936 5934 5931 5929 5926 5923 5921 5918 5916 5914 5911 5909 5907 5906 5904 5903 5902 5901 5900 5899 5898 5898 5899 5899 5899 5900 5900 5900 5901 5901 5901 5901 5901 5902 5902 5903 5903 5904
5948 5949 5949 5949 5948 5947 5948 5946 5944 5942 5941 5939 5936 5933 5931 5928 5926 5923 5920 5918 5916 5914 5911 5910 5908 5906 5904 5903 5901 5900 5899 5898 5898 5898 5899 5899 5899 5899 5900 5900 5900 5900 5901 5901 5901 5901 5902 5902 5903
5948 5949 5949 5949 5948 5948 5947 5946 5945 5943 5942 5940 5938 5935 5933 5930 5927 5925 5923 5920 5918 5916 5914 5912 5910 5908 5906 5904 5902 5901 5899 5898 5898 5898 5898 5898 5898 5898 5898 5899 5899 5899 5900 5900 5900 5900 5900 5901 5901
5947 5948 5948 5948 5948 5948 5947 5947 5946 5944 5943 5942 5940 5937 5934 5932 5929 5927 5925 5923 5920 5918 5916 5914 5911 5909 5907 5905 5903 5901 5900 5899 5898 5897 5897 5897 5897 5897 5897 5897 5897 5898 5898 5899 5899 5899 5899 5899 5900
5945 5946 5947 5947 5947 5947 5947 5947 5946 5944 5943 5942 5941 5938 5936 5934 5931 5929 5927 5924 5922 5920 5918 5915 5913 5910 5908 5906 5904 5902 5900 5899 5898 5897 5897 5896 5896 5896 5896 5896 5896 5896 5897 5897 5897 5897 5897 5897 5898
5944 5945 5946 5946 5946 5946 5947 5946 5945 5944 5943 5943 5941 5939 5937 5935 5933 5931 5929 5926 5924 5921 5919 5917 5914 5912 5909 5907 5905 5903 5901 5899 5898 5897 5896 5896 5895 5895 5895 5895 5895 5895 5895 5895 5895 5895 5895 5895 5895
5942 5943 5944 5945 5944 5945 5945 5945 5944 5944 5943 5942 5941 5940 5938 5936 5934 5932 5930 5927 5925 5923 5920 5918 5915 5913 5910 5908 5906 5904 5902 5900 5899 5897 5896 5895 5894 5894 5894 5894 5893 5893 5893 5893 5893 5893 5893 5893 5893
5939 5941 5942 5943 5943 5943 5944 5943 5943 5942 5942 5942 5941 5940 5939 5937 5935 5933 5930 5928 5926 5923 5921 5919 5916 5914 5911 5909 5906 5904 5902 5901 5899 5898 5896 5895 5894 5893 5893 5893 5892 5892 5892 5891 5891 5891 5891 5891 5890
5936 5938 5939 5940 5940 5941 5942 5942 5942 5941 5940 5940 5940 5940 5938 5937 5935 5933 5931 5929 5926 5924 5922 5920 5917 5915 5912 5910 5907 5905 5903 5901 5899 5898 5897 5895 5894 5893 5893 5892 5891 5891 5890 5889 5889 5889 5888 5888 5888
5932 5934 5936 5936 5937 5938 5939 5939 5939 5938 5938 5938 5938 5938 5937 5936 5935 5933 5931 5929 5927 5925 5923 5921 5918 5916 5913 5911 5908 5906 5904 5902 5900 5898 5897 5896 5895 5893 5892 5891 5890 5889 5888 5887 5886 5886 5885 5885 5885
5929 5931 5932 5933 5934 5935 5936 5936 5937 5936 5936 5936 5936 5936 5936 5935 5934 5933 5931 5929 5927 5925 5923 5921 5919 5916 5914 5911 5909 5906 5904 5902 5900 5899 5897 5895 5894 5893 5891 5890 5889 5888 5886 5885 5884 5883 5882 5882 5881
5924 5926 5928 5929 5930 5931 5932 5932 5934 5933 5933 5933 5933 5933 5933 5932 5932 5931 5930 5928 5926 5925 5923 5921 5919 5916 5914 5911 5909 5907 5904 5902 5900 5899 5897 5895 5894 5892 5890 5889 5888 5886 5884 5883 5882 5880 5879 5878 5878
5918 5921 5923 5925 5925 5926 5927 5928 5929 5929 5930 5930 5930 5930 5930 5930 5929 5928 5928 5926 5925 5924 5922 5920 5918 5916 5914 5912 5909 5907 5904 5902 5900 5899 5897 5895 5893 5891 5890 5888 5886 5885 5883 5881 5879 5878 5877 5875 5874
5914 5916 5918 5919 5920 5921 5923 5924 5925 5925 5926 5926 5927 5927 5927 5927 5926 5926 5925 5925 5923 5922 5921 5919 5917 5915 5913 5911 5909 5907 5904 5902 5900 5898 5896 5894 5892 5890 5889 5887 5885 5883 5881 5879 5877 5876 5874 5872 5871
5908 5910 5912 5914 5916 5917 5918 5921 5921 5921 5921 5922 5922 5923 5923 5923 5923 5922 5923 5923 5922 5920 5919 5917 5916 5914 5913 5911 5908 5906 5904 5902 5899 5897 5895 5893 5891 5889 5887 5885 5883 5881 5878 5876 5874 5873 5871 5869 5867
5902 5904 5906 5908 5910 5912 5913 5917 5917 5917 5917 5917 5918 5919 5920 5920 5920 5920 5920 5919 5918 5917 5916 5915 5914 5912 5911 5909 5907 5905 5903 5900 5898 5896 5894 5892 5889 5887 5885 5882 5880 5878 5875 5873 5871 5869 5868 5866 5864